Showing default

QIANFAN-62, 62792

Orbit data source: Space-Track

QIANFAN-62, 62792 is a Chinese payload satellite in LEO that was launched on Thu, 23 Jan 2025 UTC via a CHANG ZHENG 6A launch vehicle from the Taiyaun Space Center, China (TSC). Payload-class satellites include a variety of spacecraft equipped with specific instruments for various scientific and technological missions. These include communications satellites like Starlink; space stations such as the ISS; scientific satellites like the Hubble; Earth observation satellites from companies like Planet Labs, Umbra, and HawkEye 360; GPS; miniature CubeSats for education and research; and military/defense satellites.

Loading next visibility...
Identifier
62792, 2025-016H
Orbit
LEO
Country
Flag of CNCN / PRC
Related business
Manufacturer
SECM
Mission
Operational Commercial Communications
Bus & Motor
QIANFAN, Unknown motor
Mass
267 kg wet, ~267 kg dry
Launch date (UTC)
2025-01-23 (1 year ago)
Launch vehicle
CHANG ZHENG 6A
Launch site
Taiyaun Space Center, China (TSC)
Object type
Payload
Rocket body
Debris
Shape & HBR
Box + 1 Pan, 1.2 m
Radar Cross Section
13.200 m², Large (>1 m²)

Expand to show TLE details & history
Last TLE update: 6 hours ago

TLE from 6 hours ago
0 QIANFAN-62
1 62792U 25016H   26035.80962730  .00000108  00000-0  14826-3 0  9994
2 62792  88.9730  97.5206 0016531 179.9740 180.1415 13.50993651 54534
Epoch: 2026-02-04T19:25Z
TLE epoch observation values (Epoch: 2026-02-04T19:25:51.798Z)
Latitude
-0.00002°
Longitude
31.0839°
Altitude
1,083.871 km
Speed
7.304 km/s
True Right ascension
06h 30m 04s
True Declination
0° 00' 00"
Sunlit
Object was in full shadow at epoch
Visualization orbit readout
Latitude
Unknown
Longitude
Unknown
Altitude
Unknown
Speed
Unknown
Apparent Right ascension
Unknown
Apparent Declination
Unknown
Sunlit
N/A
Visualization observer readout
Local Sidereal Time
03:17:19
Azimuth
Unknown
Elevation
Unknown
Doppler factor
Unknown
Orbital elements
Apogee altitude
1,077.961 km
Perigee altitude
1,053.351 km
Semi-major axis
7,443.793 km
Eccentricity
0.00165
Inclination
88.973°
RAAN
97.5206°
Arg. of periapsis
179.974°
True anomaly
180.14103°
Mean anomaly
180.1415°
Eccentric anomaly
180.14127°
Mean motion
3.37949 °/min
Orbital period
106.52 mins
BSTAR
0.00014826
Loading maneuver chart data...
Computing Atmospheric mass density...
Loading historical data...
Loading historical data...
Loading historical data...
Loading historical data...
Loading historical data...
Loading historical data...
Loading historical data...

Documentation

Showing up to 5 results
|